| time (UTC) | temp C | wind direction | speed KPH | gust KPH | rain 1hr cm | rain 24hr cm | rain mn cm | humidity % | barometer mb |
| 20260510104008 | 19 | 171 | 0.0 | 0.0 | 0.00 | 0.25 | 0.00 | 99 | 1010.3 |
| 20260510103507 | 19 | 171 | 0.0 | 1.6 | 0.00 | 0.25 | 0.00 | 99 | 1010.3 |
| 20260510103007 | 19 | 171 | 0.0 | 1.6 | 0.00 | 0.25 | 0.00 | 99 | 1010.2 |
| 20260510102507 | 19 | 171 | 0.0 | 1.6 | 0.00 | 0.25 | 0.00 | 99 | 1010.3 |
| 20260510102008 | 19 | 171 | 0.0 | 3.2 | 0.00 | 0.25 | 0.00 | 98 | 1010.3 |
| 20260510101506 | 19 | 171 | 1.6 | 4.8 | 0.00 | 0.25 | 0.00 | 98 | 1010.3 |
| 20260510101008 | 19 | 171 | 3.2 | 4.8 | 0.00 | 0.25 | 0.00 | 98 | 1010.2 |
| 20260510100507 | 19 | 159 | 3.2 | 4.8 | 0.00 | 0.25 | 0.00 | 98 | 1010.2 |
| 20260510100007 | 19 | 159 | 1.6 | 4.8 | 0.00 | 0.25 | 0.00 | 98 | 1010.2 |
| 20260510095507 | 18 | 159 | 0.0 | 1.6 | 0.00 | 0.25 | 0.00 | 98 | 1010.2 |
| 20260510095006 | 18 | 159 | 0.0 | 1.6 | 0.00 | 0.25 | 0.00 | 98 | 1010.2 |
| 20260510094506 | 19 | 159 | 0.0 | 1.6 | 0.00 | 0.25 | 0.00 | 98 | 1010.2 |
| 20260510094007 | 20 | 159 | 0.0 | 1.6 | 0.00 | 0.25 | 0.00 | 98 | 1010.2 |
| 20260510093508 | 20 | 159 | 0.0 | 3.2 | 0.00 | 0.25 | 0.00 | 98 | 1010.1 |
| 20260510093006 | 20 | 159 | 1.6 | 3.2 | 0.00 | 0.25 | 0.00 | 98 | 1010.2 |
| 20260510092506 | 20 | 159 | 1.6 | 3.2 | 0.00 | 0.25 | 0.00 | 98 | 1010.2 |
| 20260510092006 | 20 | 159 | 1.6 | 3.2 | 0.00 | 0.25 | 0.00 | 98 | 1010.2 |
| 20260510091506 | 19 | 159 | 0.0 | 1.6 | 0.00 | 0.25 | 0.00 | 98 | 1010.2 |
| 20260510090507 | 20 | 159 | 0.0 | 1.6 | 0.00 | 0.25 | 0.00 | 98 | 1010.3 |
| 20260510090006 | 20 | 159 | 0.0 | 1.6 | 0.00 | 0.25 | 0.00 | 98 | 1010.3 |
| 20260510085506 | 19 | 159 | 1.6 | 3.2 | 0.00 | 0.25 | 0.00 | 98 | 1010.3 |
| 20260510085006 | 19 | 159 | 0.0 | 1.6 | 0.00 | 0.25 | 0.00 | 98 | 1010.4 |
| 20260510084506 | 19 | 159 | 0.0 | 1.6 | 0.00 | 0.25 | 0.00 | 98 | 1010.4 |
| 20260510084006 | 19 | 159 | 1.6 | 3.2 | 0.00 | 0.25 | 0.00 | 98 | 1010.3 |
| 20260510083506 | 19 | 159 | 1.6 | 3.2 | 0.00 | 0.25 | 0.00 | 98 | 1010.3 |
| 20260510083006 | 19 | 159 | 0.0 | 3.2 | 0.00 | 0.25 | 0.00 | 98 | 1010.2 |
| 20260510082505 | 20 | 163 | 3.2 | 8.0 | 0.00 | 0.25 | 0.00 | 98 | 1010.2 |
| 20260510082005 | 20 | 186 | 3.2 | 4.8 | 0.00 | 0.25 | 0.00 | 98 | 1010.2 |
| 20260510080507 | 20 | 178 | 3.2 | 4.8 | 0.00 | 0.25 | 0.00 | 96 | 1010.1 |
| 20260510080006 | 20 | 179 | 3.2 | 8.0 | 0.00 | 0.25 | 0.00 | 98 | 1010.1 |
| 20260510075505 | 20 | 163 | 3.2 | 4.8 | 0.00 | 0.25 | 0.00 | 96 | 1010.2 |
| 20260510075005 | 20 | 163 | 1.6 | 3.2 | 0.00 | 0.25 | 0.00 | 96 | 1010.2 |
| 20260510074505 | 20 | 163 | 0.0 | 3.2 | 0.00 | 0.25 | 0.00 | 96 | 1010.3 |
| 20260510074006 | 20 | 163 | 1.6 | 4.8 | 0.00 | 0.25 | 0.00 | 96 | 1010.2 |
| 20260510073505 | 20 | 164 | 4.8 | 8.0 | 0.00 | 0.25 | 0.00 | 96 | 1010.2 |
| 20260510073005 | 20 | 95 | 3.2 | 3.2 | 0.00 | 0.25 | 0.00 | 96 | 1010.3 |
| 20260510072505 | 20 | 95 | 1.6 | 4.8 | 0.00 | 0.25 | 0.00 | 96 | 1010.3 |
| 20260510072005 | 20 | 95 | 4.8 | 4.8 | 0.00 | 0.25 | 0.00 | 95 | 1010.3 |
| 20260510071006 | 20 | 95 | 8.0 | 8.0 | 0.00 | 0.25 | 0.00 | 95 | 1010.5 |
| 20260510070505 | 20 | 95 | 4.8 | 8.0 | 0.00 | 0.25 | 0.00 | 95 | 1010.5 |
| 20260510070005 | 20 | 81 | 6.4 | 9.7 | 0.00 | 0.25 | 0.00 | 95 | 1010.5 |
| 20260510065504 | 21 | 67 | 6.4 | 8.0 | 0.00 | 0.25 | 0.00 | 95 | 1010.5 |
| 20260510065005 | 21 | 69 | 8.0 | 9.7 | 0.00 | 0.25 | 0.00 | 95 | 1010.6 |
| 20260510064005 | 20 | 61 | 8.0 | 8.0 | 0.00 | 0.25 | 0.00 | 94 | 1010.6 |
| 20260510063505 | 21 | 84 | 3.2 | 4.8 | 0.00 | 0.25 | 0.00 | 94 | 1010.6 |
| 20260510063004 | 21 | 84 | 4.8 | 8.0 | 0.00 | 0.25 | 0.00 | 94 | 1010.6 |
| 20260510062505 | 21 | 84 | 8.0 | 9.7 | 0.00 | 0.25 | 0.00 | 93 | 1010.7 |
| 20260510062004 | 21 | 99 | 8.0 | 11.3 | 0.00 | 0.25 | 0.00 | 93 | 1010.7 |
| 20260510061505 | 21 | 99 | 9.7 | 11.3 | 0.00 | 0.25 | 0.00 | 93 | 1010.8 |
| 20260510061004 | 21 | 85 | 8.0 | 12.9 | 0.00 | 0.25 | 0.00 | 94 | 1010.7 |
| 20260510060504 | 21 | 85 | 8.0 | 9.7 | 0.00 | 0.25 | 0.00 | 94 | 1010.7 |
| 20260510055701 | 21 | 80 | 9.7 | 11.3 | 0.00 | 0.25 | 0.00 | 93 | 1010.7 |
| 20260510055202 | 21 | 99 | 9.7 | 9.7 | 0.00 | 0.25 | 0.00 | 94 | 1010.7 |
| 20260510054701 | 21 | 76 | 8.0 | 11.3 | 0.00 | 0.25 | 0.00 | 94 | 1010.7 |
| 20260510054201 | 21 | 67 | 11.3 | 11.3 | 0.00 | 0.25 | 0.00 | 94 | 1010.8 |
| 20260510053701 | 21 | 78 | 8.0 | 8.0 | 0.00 | 0.25 | 0.00 | 94 | 1010.6 |
| 20260510053200 | 21 | 84 | 4.8 | 4.8 | 0.00 | 0.25 | 0.00 | 94 | 1010.6 |
| 20260510052701 | 21 | 84 | 3.2 | 4.8 | 0.00 | 0.25 | 0.00 | 94 | 1010.5 |
| 20260510052201 | 21 | 84 | 8.0 | 8.0 | 0.00 | 0.25 | 0.00 | 93 | 1010.5 |
| 20260510051701 | 21 | 85 | 8.0 | 11.3 | 0.00 | 0.25 | 0.00 | 93 | 1010.5 |
| 20260510051200 | 21 | 88 | 9.7 | 11.3 | 0.00 | 0.25 | 0.00 | 92 | 1010.5 |
| 20260510050700 | 21 | 92 | 9.7 | 11.3 | 0.00 | 0.25 | 0.00 | 91 | 1010.4 |
| 20260510050201 | 21 | 99 | 9.7 | 11.3 | 0.00 | 0.25 | 0.00 | 91 | 1010.4 |
| 20260510045700 | 21 | 97 | 9.7 | 11.3 | 0.00 | 0.25 | 0.25 | 92 | 1010.4 |
| 20260510045201 | 21 | 83 | 9.7 | 11.3 | 0.00 | 0.25 | 0.25 | 91 | 1010.2 |
| 20260510043700 | 22 | 190 | 4.8 | 9.7 | 0.00 | 0.25 | 0.25 | 87 | 1009.8 |
| 20260510043200 | 22 | 182 | 4.8 | 9.7 | 0.00 | 0.25 | 0.25 | 87 | 1009.8 |
| 20260510042701 | 22 | 176 | 4.8 | 9.7 | 0.00 | 0.25 | 0.25 | 88 | 1009.8 |
| 20260510042201 | 22 | 175 | 4.8 | 9.7 | 0.00 | 0.25 | 0.25 | 87 | 1009.8 |
| 20260510041200 | 22 | 151 | 6.4 | 9.7 | 0.00 | 0.25 | 0.25 | 86 | 1009.8 |
| 20260510040700 | 22 | 160 | 6.4 | 11.3 | 0.00 | 0.25 | 0.25 | 85 | 1009.8 |
| 20260510040159 | 22 | 126 | 4.8 | 9.7 | 0.00 | 0.25 | 0.25 | 85 | 1009.8 |
| 20260510035659 | 22 | 132 | 8.0 | 11.3 | 0.00 | 0.25 | 0.25 | 85 | 1009.9 |
| 20260510034659 | 22 | 132 | 9.7 | 12.9 | 0.00 | 0.25 | 0.25 | 84 | 1009.7 |
| 20260510034159 | 22 | 123 | 8.0 | 11.3 | 0.00 | 0.25 | 0.25 | 82 | 1009.6 |
| 20260510033659 | 22 | 131 | 9.7 | 12.9 | 0.00 | 0.25 | 0.25 | 82 | 1009.5 |
| 20260510032659 | 22 | 110 | 9.7 | 12.9 | 0.00 | 0.25 | 0.25 | 82 | 1009.6 |
| 20260510032200 | 22 | 105 | 9.7 | 11.3 | 0.00 | 0.25 | 0.25 | 84 | 1009.5 |
| 20260510031659 | 22 | 114 | 6.4 | 9.7 | 0.00 | 0.25 | 0.25 | 82 | 1009.5 |
| 20260510030659 | 22 | 104 | 8.0 | 9.7 | 0.00 | 0.25 | 0.25 | 87 | 1009.3 |
| 20260510025659 | 23 | 117 | 1.6 | 4.8 | 0.00 | 0.25 | 0.25 | 82 | 1009.2 |
| 20260510025159 | 23 | 109 | 8.0 | 9.7 | 0.00 | 0.25 | 0.25 | 82 | 1009.1 |
| 20260510024659 | 22 | 92 | 8.0 | 9.7 | 0.00 | 0.25 | 0.25 | 84 | 1009.0 |
| 20260510024159 | 22 | 92 | 8.0 | 11.3 | 0.00 | 0.25 | 0.25 | 85 | 1009.0 |
| 20260510023659 | 22 | 84 | 9.7 | 11.3 | 0.00 | 0.25 | 0.25 | 85 | 1008.9 |
| 20260510023159 | 23 | 93 | 6.4 | 8.0 | 0.00 | 0.25 | 0.25 | 84 | 1008.7 |
| 20260510022658 | 23 | 111 | 3.2 | 8.0 | 0.00 | 0.25 | 0.25 | 83 | 1008.4 |
| 20260510022158 | 23 | 107 | 3.2 | 8.0 | 0.00 | 0.25 | 0.25 | 79 | 1008.3 |
| 20260510021659 | 23 | 107 | 8.0 | 8.0 | 0.00 | 0.25 | 0.25 | 80 | 1008.3 |
| 20260510021159 | 24 | 128 | 3.2 | 8.0 | 0.00 | 0.25 | 0.25 | 78 | 1008.3 |
| 20260510020700 | 25 | 146 | 4.8 | 8.0 | 0.00 | 0.25 | 0.25 | 72 | 1008.1 |
| 20260510020158 | 25 | 169 | 4.8 | 12.9 | 0.00 | 0.25 | 0.25 | 72 | 1007.9 |
| 20260510015658 | 25 | 177 | 8.0 | 12.9 | 0.00 | 0.25 | 0.25 | 72 | 1007.6 |
| 20260510015158 | 25 | 181 | 9.7 | 14.5 | 0.00 | 0.25 | 0.25 | 72 | 1007.6 |
| 20260510014658 | 25 | 172 | 6.4 | 19.3 | 0.00 | 0.25 | 0.25 | 73 | 1007.5 |
| 20260510014158 | 25 | 177 | 9.7 | 19.3 | 0.00 | 0.25 | 0.25 | 75 | 1007.4 |
| 20260510013658 | 25 | 179 | 9.7 | 14.5 | 0.00 | 0.25 | 0.25 | 75 | 1007.7 |
| 20260510013159 | 25 | 168 | 8.0 | 12.9 | 0.00 | 0.25 | 0.25 | 73 | 1007.8 |
| 20260510012657 | 26 | 176 | 9.7 | 16.1 | 0.00 | 0.25 | 0.25 | 73 | 1007.7 |
| 20260510012158 | 26 | 166 | 9.7 | 14.5 | 0.00 | 0.25 | 0.25 | 71 | 1007.8 |
| 20260510011657 | 26 | 161 | 11.3 | 19.3 | 0.00 | 0.25 | 0.25 | 71 | 1007.9 |
| 20260510011158 | 26 | 142 | 12.9 | 16.1 | 0.00 | 0.25 | 0.25 | 71 | 1008.0 |
| 20260510010658 | 26 | 136 | 11.3 | 14.5 | 0.00 | 0.25 | 0.25 | 71 | 1008.1 |
| 20260510010158 | 27 | 148 | 8.0 | 11.3 | 0.00 | 0.25 | 0.25 | 71 | 1008.1 |
| 20260510005657 | 27 | 141 | 8.0 | 11.3 | 0.00 | 0.25 | 0.25 | 70 | 1008.1 |
| 20260510004657 | 27 | 153 | 8.0 | 14.5 | 0.00 | 0.25 | 0.25 | 69 | 1007.9 |
| 20260510004158 | 27 | 151 | 6.4 | 12.9 | 0.00 | 0.25 | 0.25 | 69 | 1007.8 |
| 20260510003658 | 28 | 151 | 8.0 | 11.3 | 0.00 | 0.25 | 0.25 | 69 | 1007.7 |
| 20260510003157 | 28 | 148 | 4.8 | 12.9 | 0.00 | 0.25 | 0.25 | 68 | 1007.8 |
| 20260510002157 | 28 | 141 | 12.9 | 19.3 | 0.00 | 0.25 | 0.25 | 63 | 1007.9 |
| 20260510001657 | 29 | 140 | 16.1 | 20.9 | 0.00 | 0.25 | 0.25 | 62 | 1007.7 |
| 20260510001157 | 29 | 137 | 14.5 | 22.5 | 0.00 | 0.25 | 0.25 | 60 | 1007.6 |
| 20260510000658 | 30 | 136 | 14.5 | 22.5 | 0.00 | 0.25 | 0.25 | 59 | 1007.4 |
| 20260510000157 | 30 | 134 | 16.1 | 20.9 | 0.00 | 0.25 | 0.25 | 57 | 1007.2 |
| 20260509235657 | 31 | 139 | 12.9 | 19.3 | 0.00 | 0.25 | 0.25 | 57 | 1007.3 |
| 20260509235156 | 31 | 145 | 11.3 | 16.1 | 0.00 | 0.25 | 0.25 | 56 | 1007.2 |
| 20260509234656 | 31 | 141 | 11.3 | 16.1 | 0.00 | 0.25 | 0.25 | 55 | 1007.1 |
| 20260509234156 | 31 | 144 | 9.7 | 16.1 | 0.00 | 0.25 | 0.25 | 54 | 1007.2 |
| 20260509233658 | 31 | 148 | 9.7 | 19.3 | 0.00 | 0.25 | 0.25 | 54 | 1007.3 |
| 20260509233157 | 31 | 148 | 11.3 | 16.1 | 0.00 | 0.25 | 0.25 | 54 | 1007.2 |
| 20260509232656 | 32 | 149 | 6.4 | 11.3 | 0.00 | 0.25 | 0.25 | 50 | 1007.2 |
| 20260509232156 | 32 | 157 | 4.8 | 11.3 | 0.00 | 0.25 | 0.25 | 49 | 1007.1 |
| 20260509231656 | 32 | 141 | 9.7 | 14.5 | 0.00 | 0.25 | 0.25 | 48 | 1007.1 |
| 20260509231156 | 32 | 147 | 4.8 | 11.3 | 0.00 | 0.25 | 0.25 | 49 | 1007.1 |
| 20260509230656 | 32 | 135 | 4.8 | 12.9 | 0.00 | 0.25 | 0.25 | 51 | 1007.1 |
| 20260509230157 | 32 | 182 | 4.8 | 9.7 | 0.00 | 0.25 | 0.25 | 49 | 1007.1 |
| 20260509225656 | 32 | 173 | 6.4 | 11.3 | 0.00 | 0.25 | 0.25 | 47 | 1007.1 |
| 20260509225157 | 32 | 135 | 8.0 | 11.3 | 0.00 | 0.25 | 0.25 | 47 | 1007.1 |
| 20260509224655 | 32 | 134 | 9.7 | 14.5 | 0.00 | 0.25 | 0.25 | 47 | 1007.1 |
| 20260509224156 | 32 | 148 | 6.4 | 12.9 | 0.00 | 0.25 | 0.25 | 49 | 1007.1 |
| 20260509223156 | 32 | 116 | 9.7 | 12.9 | 0.00 | 0.25 | 0.25 | 47 | 1007.3 |
| 20260509222656 | 32 | 138 | 8.0 | 11.3 | 0.00 | 0.25 | 0.25 | 48 | 1007.3 |
| 20260509222155 | 32 | 62 | 6.4 | 9.7 | 0.00 | 0.25 | 0.25 | 47 | 1007.2 |
| 20260509221657 | 32 | 132 | 4.8 | 9.7 | 0.00 | 0.25 | 0.25 | 46 | 1007.2 |
| 20260509221155 | 32 | 131 | 8.0 | 11.3 | 0.00 | 0.25 | 0.25 | 47 | 1007.2 |
| 20260509220655 | 33 | 139 | 1.6 | 4.8 | 0.00 | 0.25 | 0.25 | 47 | 1007.1 |
| 20260509220156 | 32 | 214 | 1.6 | 8.0 | 0.00 | 0.25 | 0.25 | 47 | 1007.2 |
| 20260509215656 | 32 | 227 | 3.2 | 9.7 | 0.00 | 0.25 | 0.25 | 51 | 1007.3 |
| 20260509215155 | 32 | 202 | 3.2 | 11.3 | 0.00 | 0.25 | 0.25 | 47 | 1007.3 |
| 20260509214655 | 32 | 144 | 6.4 | 11.3 | 0.00 | 0.25 | 0.25 | 47 | 1007.3 |
| 20260509214155 | 32 | 181 | 8.0 | 11.3 | 0.00 | 0.25 | 0.25 | 50 | 1007.2 |
| 20260509213655 | 32 | 149 | 8.0 | 11.3 | 0.00 | 0.25 | 0.25 | 49 | 1007.2 |
| 20260509213155 | 32 | 161 | 4.8 | 9.7 | 0.00 | 0.25 | 0.25 | 48 | 1007.3 |
| 20260509212655 | 32 | 228 | 6.4 | 9.7 | 0.00 | 0.25 | 0.25 | 49 | 1007.2 |
| 20260509211655 | 32 | 292 | 0.0 | 4.8 | 0.00 | 0.25 | 0.25 | 46 | 1007.3 |
| 20260509211155 | 32 | 265 | 4.8 | 12.9 | 0.00 | 0.25 | 0.25 | 48 | 1007.3 |
| 20260509210654 | 32 | 248 | 4.8 | 11.3 | 0.00 | 0.25 | 0.25 | 47 | 1007.4 |
| 20260509210154 | 32 | 239 | 4.8 | 11.3 | 0.00 | 0.25 | 0.25 | 50 | 1007.4 |
| 20260509205656 | 32 | 246 | 9.7 | 12.9 | 0.00 | 0.25 | 0.25 | 50 | 1007.4 |
| 20260509204155 | 32 | 214 | 4.8 | 14.5 | 0.00 | 0.25 | 0.25 | 48 | 1007.5 |
| 20260509203654 | 32 | 222 | 4.8 | 16.1 | 0.00 | 0.25 | 0.25 | 48 | 1007.6 |
| 20260509203155 | 32 | 265 | 8.0 | 14.5 | 0.00 | 0.25 | 0.25 | 51 | 1007.7 |
| 20260509202154 | 32 | 253 | 9.7 | 12.9 | 0.00 | 0.25 | 0.25 | 48 | 1007.8 |
| 20260509201653 | 32 | 175 | 1.6 | 8.0 | 0.00 | 0.25 | 0.25 | 49 | 1007.8 |
| 20260509201154 | 31 | 231 | 6.4 | 11.3 | 0.00 | 0.25 | 0.25 | 48 | 1007.9 |
| 20260509200655 | 32 | 315 | 9.7 | 11.3 | 0.00 | 0.25 | 0.25 | 49 | 1007.9 |
| 20260509200155 | 32 | 330 | 9.7 | 14.5 | 0.00 | 0.25 | 0.25 | 50 | 1008.0 |
| 20260509195654 | 31 | 302 | 9.7 | 14.5 | 0.00 | 0.25 | 0.25 | 52 | 1008.1 |
| 20260509195153 | 31 | 244 | 1.6 | 14.5 | 0.00 | 0.25 | 0.25 | 50 | 1008.1 |
| 20260509194654 | 31 | 251 | 4.8 | 14.5 | 0.00 | 0.25 | 0.25 | 50 | 1008.2 |
| 20260509194154 | 32 | 230 | 4.8 | 12.9 | 0.00 | 0.25 | 0.25 | 54 | 1008.3 |
| 20260509193654 | 31 | 253 | 6.4 | 11.3 | 0.00 | 0.25 | 0.25 | 53 | 1008.3 |
| 20260509193154 | 31 | 234 | 1.6 | 11.3 | 0.00 | 0.25 | 0.25 | 51 | 1008.4 |
| 20260509192653 | 31 | 199 | 1.6 | 9.7 | 0.00 | 0.25 | 0.25 | 54 | 1008.5 |
| 20260509191654 | 31 | 214 | 3.2 | 9.7 | 0.00 | 0.25 | 0.25 | 54 | 1008.5 |
| 20260509191154 | 31 | 223 | 3.2 | 11.3 | 0.00 | 0.25 | 0.25 | 54 | 1008.7 |
| 20260509190653 | 31 | 241 | 4.8 | 14.5 | 0.00 | 0.25 | 0.25 | 58 | 1008.7 |
| 20260509190154 | 31 | 152 | 4.8 | 11.3 | 0.00 | 0.25 | 0.25 | 58 | 1008.7 |
| 20260509185653 | 31 | 250 | 1.6 | 11.3 | 0.00 | 0.25 | 0.25 | 58 | 1008.7 |
| 20260509185153 | 30 | 263 | 4.8 | 12.9 | 0.00 | 0.25 | 0.25 | 55 | 1008.7 |
| 20260509184652 | 30 | 269 | 0.0 | 8.0 | 0.00 | 0.25 | 0.25 | 56 | 1008.8 |
| 20260509184153 | 30 | 269 | 8.0 | 11.3 | 0.00 | 0.25 | 0.25 | 53 | 1008.9 |
| 20260509183154 | 31 | 244 | 1.6 | 9.7 | 0.00 | 0.25 | 0.25 | 57 | 1009.0 |
| 20260509182653 | 30 | 278 | 1.6 | 19.3 | 0.00 | 0.25 | 0.25 | 56 | 1009.0 |
| 20260509182152 | 31 | 295 | 9.7 | 16.1 | 0.00 | 0.25 | 0.25 | 58 | 1009.0 |
| 20260509180152 | 30 | 315 | 8.0 | 12.9 | 0.00 | 0.25 | 0.25 | 62 | 1009.4 |
| 20260509175653 | 29 | 294 | 9.7 | 19.3 | 0.00 | 0.25 | 0.25 | 61 | 1009.5 |
| 20260509175152 | 30 | 351 | 4.8 | 12.9 | 0.00 | 0.25 | 0.25 | 61 | 1009.5 |
| 20260509174653 | 29 | 335 | 9.7 | 14.5 | 0.00 | 0.25 | 0.25 | 63 | 1009.6 |
| 20260509174152 | 29 | 286 | 9.7 | 19.3 | 0.00 | 0.25 | 0.25 | 64 | 1009.7 |
| 20260509173652 | 29 | 255 | 1.6 | 8.0 | 0.00 | 0.25 | 0.25 | 64 | 1009.7 |
| 20260509173152 | 29 | 76 | 4.8 | 8.0 | 0.00 | 0.25 | 0.25 | 63 | 1009.8 |
| 20260509172652 | 29 | 352 | 4.8 | 11.3 | 0.00 | 0.25 | 0.25 | 63 | 1009.9 |
| 20260509172152 | 30 | 20 | 6.4 | 11.3 | 0.00 | 0.25 | 0.25 | 66 | 1009.9 |
| 20260509171652 | 30 | 281 | 3.2 | 12.9 | 0.00 | 0.25 | 0.25 | 64 | 1010.0 |
| 20260509171154 | 28 | 336 | 4.8 | 11.3 | 0.00 | 0.25 | 0.25 | 64 | 1010.0 |
| 20260509170652 | 28 | 327 | 1.6 | 11.3 | 0.00 | 0.25 | 0.25 | 66 | 1009.8 |
| 20260509165652 | 28 | 353 | 6.4 | 9.7 | 0.00 | 0.25 | 0.25 | 66 | 1009.7 |
| 20260509165152 | 28 | 344 | 6.4 | 14.5 | 0.00 | 0.25 | 0.25 | 66 | 1009.7 |
| 20260509164152 | 28 | 74 | 3.2 | 8.0 | 0.00 | 0.25 | 0.25 | 67 | 1009.6 |
| 20260509163653 | 27 | 37 | 4.8 | 11.3 | 0.00 | 0.25 | 0.25 | 67 | 1009.4 |
| 20260509163152 | 28 | 61 | 6.4 | 11.3 | 0.00 | 0.25 | 0.25 | 69 | 1009.1 |
| 20260509162651 | 27 | 64 | 1.6 | 12.9 | 0.00 | 0.25 | 0.25 | 71 | 1009.2 |
| 20260509160151 | 27 | 255 | 8.0 | 9.7 | 0.00 | 0.25 | 0.25 | 78 | 1009.4 |
| 20260509155651 | 27 | 283 | 9.7 | 12.9 | 0.00 | 0.25 | 0.25 | 78 | 1009.2 |
| 20260509155151 | 27 | 236 | 11.3 | 11.3 | 0.00 | 0.25 | 0.25 | 79 | 1009.4 |
| 20260509154651 | 26 | 279 | 8.0 | 11.3 | 0.00 | 0.25 | 0.25 | 81 | 1009.4 |
| 20260509154152 | 26 | 271 | 11.3 | 16.1 | 0.00 | 0.25 | 0.25 | 81 | 1009.3 |
| 20260509153652 | 26 | 259 | 9.7 | 12.9 | 0.00 | 0.25 | 0.25 | 82 | 1009.2 |
| 20260509153151 | 26 | 248 | 16.1 | 20.9 | 0.00 | 0.25 | 0.25 | 81 | 1009.4 |
| 20260509152651 | 26 | 246 | 11.3 | 12.9 | 0.00 | 0.25 | 0.25 | 86 | 1009.3 |
| 20260509152150 | 25 | 224 | 4.8 | 11.3 | 0.00 | 0.25 | 0.25 | 87 | 1009.2 |
| 20260509151151 | 25 | 246 | 11.3 | 14.5 | 0.00 | 0.25 | 0.25 | 88 | 1009.4 |
| 20260509150150 | 25 | 331 | 3.2 | 11.3 | 0.00 | 0.25 | 0.25 | 91 | 1009.2 |
| 20260509145650 | 25 | 193 | 4.8 | 12.9 | 0.00 | 0.25 | 0.25 | 91 | 1009.1 |
| 20260509145150 | 25 | 237 | 4.8 | 11.3 | 0.03 | 0.25 | 0.25 | 91 | 1009.6 |
| 20260509144650 | 25 | 250 | 8.0 | 11.3 | 0.03 | 0.28 | 0.25 | 91 | 1009.8 |
| 20260509144150 | 25 | 254 | 9.7 | 11.3 | 0.03 | 0.28 | 0.25 | 91 | 1010.0 |
| 20260509143651 | 25 | 277 | 11.3 | 14.5 | 0.03 | 0.28 | 0.25 | 91 | 1010.0 |
| 20260509143152 | 25 | 285 | 11.3 | 12.9 | 0.03 | 0.28 | 0.25 | 91 | 1010.0 |
| 20260509142650 | 25 | 267 | 9.7 | 12.9 | 0.03 | 0.28 | 0.25 | 91 | 1009.7 |
| 20260509142150 | 25 | 245 | 9.7 | 12.9 | 0.03 | 0.28 | 0.25 | 89 | 1009.7 |
| 20260509141650 | 25 | 253 | 11.3 | 12.9 | 0.03 | 0.28 | 0.25 | 89 | 1009.6 |
| 20260509140650 | 25 | 279 | 1.6 | 4.8 | 0.03 | 0.28 | 0.25 | 91 | 1009.9 |
| 20260509140151 | 24 | 279 | 1.6 | 4.8 | 0.03 | 0.28 | 0.25 | 91 | 1009.8 |
| 20260509135150 | 24 | 234 | 4.8 | 4.8 | 0.00 | 0.25 | 0.23 | 92 | 1010.0 |
| 20260509134149 | 23 | 232 | 4.8 | 8.0 | 0.00 | 0.28 | 0.23 | 90 | 1010.1 |
| 20260509133650 | 23 | 243 | 8.0 | 14.5 | 0.00 | 0.28 | 0.23 | 89 | 1010.1 |
| 20260509133151 | 23 | 248 | 11.3 | 12.9 | 0.00 | 0.30 | 0.23 | 91 | 1009.9 |
| 20260509132649 | 24 | 224 | 3.2 | 12.9 | 0.00 | 0.33 | 0.23 | 88 | 1009.8 |
| 20260509132149 | 23 | 242 | 11.3 | 14.5 | 0.00 | 0.33 | 0.23 | 88 | 1009.8 |
| 20260509131649 | 23 | 280 | 11.3 | 16.1 | 0.00 | 0.33 | 0.23 | 87 | 1009.5 |
| 20260509131149 | 24 | 273 | 8.0 | 19.3 | 0.00 | 0.33 | 0.23 | 86 | 1009.8 |
| 20260509130150 | 25 | 313 | 22.5 | 61.2 | 0.05 | 0.33 | 0.23 | 82 | 1009.8 |
| 20260509125649 | 25 | 225 | 12.9 | 22.5 | 0.08 | 0.33 | 0.23 | 82 | 1008.9 |
| 20260509125149 | 24 | 323 | 32.2 | 41.8 | 0.08 | 0.33 | 0.23 | 89 | 1009.0 |
| 20260509124649 | 23 | 326 | 20.9 | 32.2 | 0.10 | 0.33 | 0.23 | 94 | 1008.8 |
| 20260509124149 | 23 | 317 | 9.7 | 22.5 | 0.13 | 0.33 | 0.23 | 96 | 1008.7 |
| 20260509123650 | 23 | 183 | 14.5 | 24.1 | 0.15 | 0.33 | 0.23 | 98 | 1007.6 |
| 20260509123149 | 23 | 166 | 25.7 | 51.5 | 0.18 | 0.33 | 0.23 | 98 | 1007.4 |
| 20260509120149 | 23 | 143 | 32.2 | 45.1 | 0.20 | 0.33 | 0.23 | 99 | 1007.8 |
| 20260509115649 | 23 | 144 | 32.2 | 46.7 | 0.20 | 0.33 | 0.23 | 99 | 1007.8 |
| 20260509115149 | 23 | 136 | 32.2 | 48.3 | 0.20 | 0.33 | 0.23 | 99 | 1008.0 |
| 20260509114648 | 23 | 159 | 17.7 | 29.0 | 0.23 | 0.33 | 0.23 | 99 | 1009.3 |
| 20260509114149 | 23 | 170 | 11.3 | 22.5 | 0.20 | 0.30 | 0.20 | 99 | 1010.0 |
| 20260509113149 | 23 | 152 | 8.0 | 11.3 | 0.15 | 0.25 | 0.15 | 100 | 1010.7 |
| 20260509111648 | 23 | 146 | 9.7 | 16.1 | 0.10 | 0.20 | 0.10 | 100 | 1010.3 |
| 20260509111148 | 23 | 139 | 12.9 | 19.3 | 0.08 | 0.18 | 0.08 | 100 | 1010.4 |
| 20260509110648 | 23 | 122 | 14.5 | 22.5 | 0.05 | 0.15 | 0.05 | 100 | 1010.1 |
| 20260509110148 | 23 | 135 | 14.5 | 19.3 | 0.03 | 0.13 | 0.03 | 99 | 1010.0 |
| 20260509105649 | 23 | 143 | 11.3 | 12.9 | 0.03 | 0.13 | 0.03 | 99 | 1009.7 |